FENGYUN 1C DEB

Satellite information

Favourite Embed

Satellite Type and Status

DEBRISIN ORBIT

Key statistics

Satellite FENGYUN 1C DEB at a glance.

Uptime

9717

Days in orbit

Revolutions

≈ 15.3

Per day

Orbit

SSO

Sun Synchronous Orbit

Inclination

98.5

Latest

Satellite identification and parameters

Extended collection of information and parameters for FENGYUN 1C DEB.

Object identification

Identified? True

Debris? True

Object name: FENGYUN 1C DEB

International designator: 1999-025BCE

Object number (NORAD): 30988

Object ID (CCSDS): 30988

Country: PEOPLES REPUBLIC OF CHINA (PRC)

Current information (Y/N): Y

RCS size: SMALL

Orbital parameters

Period: 94.342 minutes

Inclination: 98.54 deg

SMA: 6864.86 km

Apoapsis: 564.027 km

Periapsis: 409.423 km

RAAN: 295.3431 deg

Eccentricy: 0.01126053

Argument of periapsis: 336.54 deg

Mean anomaly: 23.0719 deg

Mean motion: 15.26353987 rev/day

Mean motion (dot): 0.00064818 rev/day2

B* drag term: 0.0020604581 1/REarth

Two-line elements (TLE)

Creation date: Dec. 14, 2025, 11:30 a.m.

Reference frame: TEME

Reference center: EARTH

Epoch: Dec. 13, 2025, 7:47 p.m. UTC

TLE line 0: 0 FENGYUN 1C DEB

TLE line 1: 1 30988U 99025BCE 25347.82457709 .00064818 00000-0 20605-2 0 9998

TLE line 2: 2 30988 98.5400 295.3431 0112605 336.5400 23.0719 15.26353987995801

Live tracking on map

Real-time ground track for satellite FENGYUN 1C DEB.

In-orbit conjunctions

A list of the most updated potential collisions computed for object FENGYUN 1C DEB.

Target Orbit TCA Probability of collision Miss distance Type
OBJECT J SSO 2025-09-17 23:18:03 0.000467289 805.0 (m) UNKNOWN
COSMOS 2058 LEO 2025-07-05 05:44:38 0.0001310689 448.0 (m) PAYLOAD
OBJECT L SSO 2025-04-02 08:02:05 0.000205997 854.0 (m) UNKNOWN

Associated space launch

Chinese polar orbiting meteorological satellite

FENGYUN 1C DEB was lifted into orbit during the mission ‘Long March 4B | Feng Yun 1C’, on board a Long March 4B space rocket.

The launch took place on May 10, 1999, 1:33 a.m. from Launch Complex 7.

For more information about the launch, click the button.

Launch to space Long March 4B | Feng Yun 1C
Long March 4B | Feng Yun 1C

Agency: N/A

Status: Launch Successful

Launch date: May 10, 1999, 1:33 a.m. UTC

Rocket: Long March 4B

Launch pad: Launch Complex 7

Location: Taiyuan Satellite Launch Center, People's Republic of China

...

Latest news about this satellite

There are no fresh news available about this satellite. Check back as we update our databases every day.


Newsletter sign-up

Weekly statistics, charts and insights to help you stay on top of the space industry.